www.pogodaiklimat.ru

Погода и климат >> Архив погоды >> Сирия >> Эль-Камышлы


ПОГОДА в Эль-Камышлы

  • Прогноз погоды в Эль-Камышлы
  • Монитор погоды в Эль-Камышлы

АРХИВ ПОГОДЫ в Эль-Камышлы

Время (UTC), дата Ветер
(напр.,м/с)
 
Видим.   Явления Облачность Т
(С)
Тd
(С)
f
(%)
Тe
(С)
Тes
(С)
Комфортность P
(гПа)
Po
(гПа)
Тmin
(С)
Tmax
(С)
R
(мм)
R24
(мм)
S
(см)
09 16.08 ЮЗ 7 6000 м ясно +37.2 +10.2 20 +36 +41 очень
жарко
1002.1 953.1
12 16.08 ЮЗ 7 8000 м ясно +37.6 +7.6 16 +35 +39 очень
жарко
1000.8 952.0
15 16.08 З 7 10 км ясно +35.4 +7.7 18 +33 +34 жарко 1000.4 951.2
18 16.08 З 4 20 км ясно +28.2 +5.4 23 +27 +27 жарко 1002.5 952.1 +37.6
21 16.08 н/о
03 17.08 СЗ 2 20 км ясно +21.0 +4.4 34 +22 +22 комфорт 1002.3 950.7
09 17.08 ЮЗ 4 10 км ясно +35.0 +8.3 19 +33 +46 жарко 1000.2 951.0
12 17.08 ЮЗ 5 20 км ясно +36.4 +7.0 16 +34 +40 очень
жарко
998.5 949.6
15 17.08 З 4 20 км ясно +36.0 +7.7 18 +34 +35 очень
жарко
997.5 948.6
18 17.08 СЗ 3 20 км ясно +29.6 +5.0 21 +28 +28 жарко 999.1 949.1 +37.0
21 17.08 н/о
00 18.08 З 2 20 км ясно +24.0 +6.0 31 +24 +24 комфорт 1000.3 949.3
06 18.08 Ю 2 20 км ясно +30.7 +12.9 34 +32 +41 жарко 1000.6 950.7 +21.0
09 18.08 Ю 5 7000 м ясно +35.8 +13.1 26 +36 +46 очень
жарко
999.9 950.8
12 18.08 З 4 7000 м ясно +39.3 +9.8 17 +38 +45 очень
жарко
998.5 950.0
18 18.08 З 3 20 км ясно +32.6 +14.5 34 +34 +34 очень
жарко
1001.3 951.6 +40.0
21 18.08 н/о
00 19.08 З 3 20 км ясно +26.2 +18.7 63 +31 +31 очень
душно
1002.2 951.5
03 19.08 З 3 20 км ясно +25.0 +11.3 42 +26 +26 жарко 1003.7 952.7
09 19.08 Ю 6 20 км ясно +38.4 +3.4 11 +35 +42 очень
жарко
1004.2 955.3
12 19.08 ЮЗ 7 20 км ясно +39.8 +1.5 9 +36 +39 очень
жарко
1003.6 955.0
21 19.08 СЗ 3 15 км ясно +27.2 +5.2 25 +26 +26 жарко 1006.9 956.1
06 20.08 С 6 20 км ясно +36.2 +6.9 17 +34 +38 очень
жарко
1006.2 956.9 +28.6
09 20.08 СВ 3 20 км ясно +41.1 +1.0 8 +37 +52 опасность
солнечного
удара
1004.5 956.0
12 20.08 З 6 20 км 3/3 800 м
[Cu hum]
+41.6 +1.3 8 +38 +41 очень
жарко
1003.2 954.8
15 20.08 Ю 3 20 км ясно +40.8 +2.3 9 +37 +38 очень
жарко
1002.7 954.2
18 20.08 С 2 20 км ясно +31.8 +2.3 15 +29 +29 жарко 1005.0 955.0 +43.2
21 20.08 С 5 20 км ясно +31.8 +4.3 18 +30 +30 жарко 1004.0 954.1
00 21.08 В 2 20 км ясно +25.4 +3.0 23 +24 +24 комфорт 1005.0 954.0
03 21.08 СЗ 4 20 км ясно +23.5 +6.9 34 +24 +24 комфорт 1006.1 954.7
06 21.08 ЮЗ 3 20 км ясно +30.6 +10.9 30 +31 +38 жарко 1006.1 955.9 +22.4
09 21.08 ЮЗ 6 20 км ясно +37.6 +10.4 19 +36 +43 очень
жарко
1004.8 955.8
12 21.08 Ю 6 10 км ясно +38.8 +6.0 13 +36 +40 очень
жарко
1003.4 954.6
18 21.08 З 4 20 км ясно +28.9 +7.8 27 +28 +28 жарко 1005.8 955.3 +39.4
21 21.08 З 4 20 км ясно +26.3 +9.0 34 +27 +27 жарко 1006.8 955.9
03 22.08 Ю 2 20 км ясно +19.8 +8.7 49 +21 +22 комфорт 1007.2 955.1
06 22.08 З 3 20 км ясно +28.4 +12.2 37 +30 +37 жарко 1006.0 955.4 +19.6
09 22.08 ЮЗ 2 20 км ясно +33.9 +7.5 20 +32 +50 жарко 1004.5 954.9
12 22.08 Ю 3 20 км ясно +36.7 +4.3 13 +34 +43 очень
жарко
1002.8 953.7
18 22.08 СЗ 3 20 км ясно +29.8 +11.3 32 +30 +30 жарко 1004.4 954.1 +37.4
21 22.08 З 2 20 км ясно +26.0 +12.6 43 +28 +28 жарко 1004.0 953.1
00 23.08 СЗ 1 20 км ясно +23.4 +12.6 51 +26 +26 жарко 1003.5 952.2
03 23.08 С 2 20 км ясно +21.8 +11.3 51 +24 +24 комфорт 1003.8 952.3

 

Местоположение метеостанции Эль-Камышлы (Сирия): широта 37.05 долгота 41.22 высота над уровнем моря 455 м.

В архиве по умолчанию представлена погода в Эль-Камышлы за последнюю неделю. Архивные данные за месяц целиком и за предыдущие месяцы, начиная с января 2011 года, Вы можете получить, выбрав интересующий диапазон дат из раскрывающегося списка и нажав кнопку "Ввод!".


*Определитесь, кто Вы:
робот инопланетянин человек

Внимание! Время в таблицах - всемирное. Для получения местного времени необходимо прибавить поправку, которая равна 2 ч.

Смотрите также архив погоды в соседних городах и на ближайших метеорологических станциях:

Погода в Мардине (Турция) (52 км)
Погода в Эль-Хасаке (Сирия) (74 км)
Погода в Рабиа (Ирак) (83 км)
Погода в Батмане (Турция) (91 км)
Погода в Сиирте (Турция) (117 км)
Погода в Ширнаке (Турция) (121 км)
Погода в Диярбакыре (Турция) (130 км)
Погода в Закхо (Ирак) (133 км)
Погода в Талль-Афаре (Ирак) (135 км)
Погода в Дохуке (Ирак) (159 км)

Пояснения к столбцам:

Ветер - указаны скорость ветра в м/с - средняя за 10 мин, порывы в срок и между сроками (в фигурных скобках) и направление, откуда дует ветер: С - северный, СВ - северо-восточный, В - восточный, ЮВ - юго-восточный, Ю - южный, ЮЗ - юго-западный, З - западный, СЗ - северо-западный.
Видимость - горизонтальная дальность видимости в метрах или километрах. При видимости от 1 до 10 км при отсутствии осадков обычно наблюдается дымка, при ухудшении видимости до 1 км и менее - туман. В сухую погоду видимость может ухудшаться дымом, пылью или мглою.
Явления - указаны атмосферные явления, наблюдавшиеся в срок или в последний час перед сроком; фигурными скобками обозначены явления, наблюдавшиеся между сроками (за 1-3 часа до срока); квадратными скобками обозначены град или гололедные отложения с указанием их диаметра в мм.
Облачность - указаны через наклонную черту общая и нижняя облачность в баллах и высота нижней границы облаков в метрах; квадратными скобками обозначены формы облаков: Ci - перистые, Cs - перисто-слоистые, Cc - перисто-кучевые, Ac - высококучевые, As - высокослоистые, Sc - слоисто-кучевые, Ns - слоисто-дождевые, Cu - кучевые, Cb - кучево-дождевые. Подробнее классификацию облаков см. в Атласе облаков (PDF).
T - Температура воздуха - температура, измеренная на высоте 2 м над землей.
Td - Температура точки росы - температура, при понижении до которой содержащийся в воздухе водяной пар достигнет насыщения.
f - Относительная влажность воздуха - влажноcть воздуха, измеренная на высоте 2 м над землей.
Te - Эффективная температура - температура, которую ощущает одетый по сезону человек в тени. Характеристика душности погоды. При расчете учитывается влияние влажности воздуха и скорости ветра на теплоощущения человека.
Tes - Эффективная температура на солнце - температура, которую ощущает человек, с поправкой на солнечный нагрев. Характеристика знойности погоды. Зависит от высоты солнца над горизонтом, облачности и скорости ветра. Ночью, в пасмурную погоду, а также при ветре 12 м/с и более поправка равна нулю.
P - Атмосферное давление - приведенное к уровню моря атмосферное давление.
Po - Атмосферное давление - измеренное на уровне метеостанции атмосферное давление.
Tmin - Минимальная температура - минимум температуры воздуха на высоте 2 м над землей.
Tmax - Максимальная температура - максимум температуры воздуха на высоте 2 м над землей.
R - Количество осадков - Количество выпавших осадков за период времени, мм. При наведении курсора мыши на число - период времени, за который выпало указанное количество осадков.
R24 - Количество осадков - Количество выпавших осадков за 24 часа, мм.
S - Снежный покров - Высота снежного покрова, см. При наведении курсора мыши на число - состояние снежного покрова и степень покрытия местности в баллах.